METAR AND TAF INFORMATION
METAR FOR KIAD
KIAD 230552Z 30003KT 10SM SCT026 BKN039 22/21 A2999 RMK AO2 SLP151 60006 T02170206 10267 20217 53006
KIAD 230452Z 19003KT 10SM FEW060 22/21 A2998 RMK AO2 SLP149 T02170206 403000217
KIAD 230352Z 20006KT 10SM FEW040CB SCT060 OVC150 22/21 A2997 RMK AO2 RAE02 TSE19 SLP147 OCNL LTG DSNT NE-SE CB NE-SE MOV NE P0000 T02220206
KIAD 230325Z 20006KT 10SM FEW039CB BKN060 OVC180 22/21 A2997 RMK AO2 RAE02 TSE19 OCNL LTG DSNT SE CB SE MOV NE P0000 T02220206
KIAD 230529Z 2306/2412 19003KT P6SM FEW020 BKN250
FM231000 25003KT P6SM FEW015 BKN250
FM231400 31005KT P6SM FEW025 BKN250
FM232200 18006KT P6SM VCTS BKN050CB BKN160
FM240200 17003KT 6SM -RA BR OVC030
FM240500 17002KT 5SM -RA BR OVC015

 AIRPORT MAP

 RUNWAY INFORMATION
Runway 01C Runway length 11501 ft Runway width 150 ft
Runway elevation 286 ft Runway displaced threshold 0 ft Runway heading 1
Runway 19C Runway length 11501 ft Runway width 150 ft
Runway elevation 269 ft Runway displaced threshold 0 ft Runway heading 181
Runway 01L Runway length 11501 ft Runway width 150 ft
Runway elevation 286 ft Runway displaced threshold 0 ft Runway heading 1
Runway 19R Runway length 11501 ft Runway width 150 ft
Runway elevation 269 ft Runway displaced threshold 0 ft Runway heading 181
Runway 01R Runway length 11500 ft Runway width 150 ft
Runway elevation 312 ft Runway displaced threshold 0 ft Runway heading 1
Runway 19L Runway length 11500 ft Runway width 150 ft
Runway elevation 293 ft Runway displaced threshold 0 ft Runway heading 181
Runway 12 Runway length 10501 ft Runway width 150 ft
Runway elevation 310 ft Runway displaced threshold 0 ft Runway heading 111
Runway 30 Runway length 10501 ft Runway width 150 ft
Runway elevation 288 ft Runway displaced threshold 0 ft Runway heading 291

 AIRPORT FREQUENCIES
Type APP Name POTOMAC AP Frequency 120.45 MHZ
Type ATIS Name ATIS Frequency 134.85 MHZ
Type CLD Name CLNC DEL Frequency 135.7 MHZ
Type DEP Name POTOMAC DE Frequency 125.05 MHZ
Type GND Name GND Frequency 121.9 MHZ
Type RCO Name ARMEL RCO Frequency 113.5 MHZ
Type RMP Name RAMP CON Frequency 129.55 MHZ
Type TWR Name TWR Frequency 120.1 MHZ
Type UNIC Name UNICOM Frequency 122.95 MHZ

 AIRPORT NEAR NAVIGATION AIDS
Type VORTAC Name Armel Frequency 113500 KHZ
Type NDB Name Tille Frequency 346 KHZ

-